Simultaneous Nadir Overpasses (SNOs) Predictions

Prediction of SNOs between AQUA and METOP-C Satellite Orbit:

Table of predicted SNOs for the next 14.0 days since TLE Epoch: 5/8/2021
Index Date (AQUA) Time (AQUA) Lat,Lon (AQUA) SZA (AQUA ) Date (METOP-C) Time (METOP-C) Lat,Lon (METOP-C) SZA (METOP-C ) Distance(km) Time Diff (sec)
1 05/10/2021 05:49:31 -73.15, -91.79 124.60 05/10/2021 05:48:24 -73.08, -94.17 124.59 77.24 67
2 05/10/2021 06:39:09 73.71, 74.68 55.98 05/10/2021 06:38:51 73.73, 74.64 56.01 3.25 18
3 05/10/2021 07:28:37 -73.82,-117.93 123.91 05/10/2021 07:29:31 -73.81,-117.86 123.93 2.84 54
4 05/13/2021 01:23:50 -73.39, -25.84 125.06 05/13/2021 01:22:40 -73.34, -27.20 125.07 43.48 70
5 05/13/2021 02:13:24 73.74, 141.04 55.31 05/13/2021 02:13:12 73.73, 141.04 55.30 1.36 12
6 05/13/2021 03:02:51 -73.80, -51.45 124.65 05/13/2021 03:03:52 -73.81, -51.44 124.64 1.41 61
7 05/15/2021 20:58:10 -73.63, 40.07 125.48 05/15/2021 20:56:57 -73.59, 39.78 125.50 10.23 73
8 05/15/2021 21:47:39 73.73,-152.51 54.62 05/15/2021 21:47:34 73.73,-152.56 54.62 1.99 5
9 05/15/2021 22:37:07 -73.84, 14.91 125.28 05/15/2021 22:38:14 -73.82, 14.98 125.31 2.91 67
10 05/18/2021 16:32:26 -73.68, 106.42 126.06 05/18/2021 16:31:17 -73.69, 106.43 126.04 2.05 69
11 05/18/2021 17:21:54 73.73, -86.06 53.99 05/18/2021 17:21:56 73.72, -86.17 53.99 3.71 2
12 05/18/2021 18:11:22 -73.83, 81.37 125.92 05/18/2021 18:12:35 -73.87, 81.51 125.88 6.48 73
13 05/21/2021 12:06:40 -73.67, 172.87 126.65 05/21/2021 12:05:38 -73.69, 172.83 126.62 2.72 62
14 05/21/2021 12:56:09 73.78, -19.74 53.46 05/21/2021 12:56:16 73.76, -19.67 53.44 3.26 7



Historial Predications of SNOs between AQUA and METOP-C
